• Currently

    Reported at Minneapolis, Minneapolis-St. Paul International Airport, MN
    6:53 PM CST WED APR 26 2017
  • 39°F4°C
  • Drizzle
    Drizzle
  • Feels Like:33°F0°CDew Point:32°F0°CHumidity:75% Winds:N 12 mph 19 kph
    Pressure:29.56 in1001 hPaVisibility:10.00 miles16090.00 meters
Time Weather Temp Dew Point
Humidity Winds Visibility Pressure Precipitation
1 hr 24 hr
Sunday, April 23
23:53 23:53 Clear Clear 56°F13°C 36°F2°C 47% CalmCalm 10.0 miles16.1 km 30.09 in1019 hPa 0.00 in0.00 mm --
22:53 22:53 Clear Clear 57°F14°C 38°F3°C 49% CalmCalm 10.0 miles16.1 km 30.09 in1019 hPa 0.00 in0.00 mm --
21:53 21:53 Mostly Clear Mostly Clear 61°F16°C 34°F1°C 36% WSW 5 mphWSW 7 kph 10.0 miles16.1 km 30.09 in1019 hPa 0.00 in0.00 mm --
20:53 20:53 Mostly Clear Mostly Clear 64°F18°C 33°F1°C 32% WSW 5 mphWSW 7 kph 10.0 miles16.1 km 30.09 in1019 hPa 0.00 in0.00 mm --
19:53 19:53 Mostly Sunny Mostly Sunny 65°F18°C 34°F1°C 32% W 6 mphW 9 kph 10.0 miles16.1 km 30.09 in1019 hPa 0.00 in0.00 mm --
18:53 18:53 Mostly Sunny Mostly Sunny 67°F19°C 34°F1°C 30% WNW 12 mphWNW 19 kph 10.0 miles16.1 km 30.12 in1020 hPa 0.00 in0.00 mm --
17:53 17:53 Mostly Sunny Mostly Sunny 68°F20°C 33°F1°C 27% WNW 13 mphWNW 20 kph 10.0 miles16.1 km 30.12 in1020 hPa 0.00 in0.00 mm --
16:53 16:53 Mostly Sunny Mostly Sunny 69°F21°C 34°F1°C 27% WNW 13 mphWNW 20 kph 10.0 miles16.1 km 30.12 in1020 hPa 0.00 in0.00 mm --
15:53 15:53 Mostly Sunny Mostly Sunny 68°F20°C 34°F1°C 28% WNW 9 mphWNW 15 kph 10.0 miles16.1 km 30.15 in1021 hPa 0.00 in0.00 mm --
14:53 14:53 Mostly Sunny Mostly Sunny 69°F21°C 35°F2°C 29% W 10 mphW 17 kph 10.0 miles16.1 km 30.18 in1022 hPa 0.00 in0.00 mm --
13:53 13:53 Sunny Sunny 68°F20°C 34°F1°C 28% WNW 10 mphWNW 17 kph 10.0 miles16.1 km 30.21 in1023 hPa 0.00 in0.00 mm --
12:53 12:53 Sunny Sunny 66°F19°C 34°F1°C 30% NW 12 mphNW 19 kph 10.0 miles16.1 km 30.21 in1023 hPa 0.00 in0.00 mm --
11:53 11:53 Sunny Sunny 64°F18°C 32°F0°C 30% WSW 9 mphWSW 15 kph 10.0 miles16.1 km 30.24 in1024 hPa 0.00 in0.00 mm --
10:53 10:53 Sunny Sunny 60°F16°C 31°F-1°C 33% WSW 8 mphWSW 13 kph 10.0 miles16.1 km 30.24 in1024 hPa 0.00 in0.00 mm --
09:53 09:53 Mostly Sunny Mostly Sunny 58°F14°C 30°F-1°C 35% SSW 6 mphSSW 9 kph 10.0 miles16.1 km 30.27 in1025 hPa 0.00 in0.00 mm --
08:53 08:53 Sunny Sunny 52°F11°C 39°F4°C 61% S 3 mphS 6 kph 10.0 miles16.1 km 30.27 in1025 hPa 0.00 in0.00 mm --
07:53 07:53 Mostly Sunny Mostly Sunny 48°F9°C 39°F4°C 71% CalmCalm 10.0 miles16.1 km 30.27 in1025 hPa 0.00 in0.00 mm --
06:53 06:53 Mostly Sunny Mostly Sunny 43°F6°C 37°F3°C 80% CalmCalm 9.0 miles14.5 km 30.24 in1024 hPa 0.00 in0.00 mm --
05:53 05:53 Mostly Clear Mostly Clear 42°F6°C 36°F2°C 79% CalmCalm 10.0 miles16.1 km 30.24 in1024 hPa 0.00 in0.00 mm --
04:53 04:53 Clear Clear 43°F6°C 37°F3°C 80% CalmCalm 10.0 miles16.1 km 30.21 in1023 hPa 0.00 in0.00 mm --
03:53 03:53 Clear Clear 44°F7°C 36°F2°C 73% ESE 3 mphESE 6 kph 10.0 miles16.1 km 30.21 in1023 hPa 0.00 in0.00 mm --
02:53 02:53 Clear Clear 44°F7°C 38°F3°C 79% CalmCalm 10.0 miles16.1 km 30.21 in1023 hPa 0.00 in0.00 mm --
01:53 01:53 Clear Clear 47°F8°C 36°F2°C 66% CalmCalm 10.0 miles16.1 km 30.21 in1023 hPa 0.00 in0.00 mm --
00:53 00:53 Clear Clear 48°F9°C 37°F3°C 66% CalmCalm 10.0 miles16.1 km 30.21 in1023 hPa 0.00 in0.00 mm --